This demonstration page uses our WeatherBlox Daily Observations layout. Learn more.

Left ArrowRight Arrow

Hourly Observations for September 10, 2020

Temp ( °F °C ) Dew Point ( °F °C ) Humidity (%) Winds ( mph kmh ) Pressure ( in mb ) Visibility ( mi km ) Precip ( " mm )
12:38 am 00:38 Cloudy with Light Rain 78 25.6 74 23.3 87 87 E 3 6 30.19 1022 3 5 0.04 1.02
12:59 am 00:59 Cloudy with Mist and Fog 77 25 75 23.9 94 94 Calm 30.18 1022 6 10 0.04 1.02
1:33 am 01:33 Cloudy with Light Rain 78 25.6 75 23.9 90 90 ESE 7 11 30.17 1022 9 14 0.01 0.25
1:59 am 01:59 Cloudy 78 25.6 75 23.9 90 90 SE 5 7 30.16 1021 9 14 0.01 0.25
2:52 am 02:52 Mostly Cloudy 77 25 74 23.3 90 90 SE 5 7 30.15 1021 9 14 0.00 0.00
2:59 am 02:59 Mostly Cloudy 77 25 74 23.3 90 90 SE 5 7 30.15 1021 9 14 0.00 0.00
3:46 am 03:46 Mostly Cloudy 77 25 74 23.3 90 90 ENE 3 6 30.16 1021 8 13 0.00 0.00
3:59 am 03:59 Cloudy 77 25 74 23.3 90 90 E 3 6 30.16 1022 8 13 0.00 0.00
4:59 am 04:59 Cloudy 77 25 74 23.3 90 90 E 6 9 30.16 1022 8 13 0.00 0.00
5:59 am 05:59 Mostly Cloudy 77 25 75 23.9 94 94 E 5 7 30.16 1021 7 11 0.00 0.00
6:59 am 06:59 Cloudy with Light Rain 78 25.6 75 23.9 90 90 Calm 30.18 1022 3 5 0.03 0.76
7:59 am 07:59 Mostly Cloudy with Light Rain 78 25.6 75 23.9 90 90 E 5 7 30.18 1022 4 6 0.04 1.02
8:59 am 08:59 Cloudy 79 26.1 76 24.4 90 90 E 6 9 30.19 1022 7 11 0.00 0.00
9:06 am 09:06 Cloudy 79 26.1 76 24.4 90 90 ESE 7 11 30.19 1022 7 11 0.00 0.00
9:15 am 09:15 Cloudy with Thunderstorms 79 26.1 75 23.9 88 88 SE 7 11 30.19 1022 7 11 0.00 0.00
9:23 am 09:23 Cloudy with Thunderstorms 79 26.1 75 23.9 88 88 SE 5 7 30.20 1023 3 4 0.01 0.25
9:31 am 09:31 Cloudy with Thunderstorms 78 25.6 75 23.9 90 90 SE 10 17 30.20 1023 3 5 0.01 0.25
9:42 am 09:42 Cloudy with Light Rain 78 25.6 75 23.9 90 90 ESE 9 15 30.20 1023 3 5 0.03 0.76
9:50 am 09:50 Cloudy with Light Rain 77 25 73 22.8 88 88 ESE 7 11 30.19 1022 4 6 0.03 0.76
9:59 am 09:59 Mostly Cloudy with Thunderstorms 77 25 74 23.3 90 90 ESE 7 11 30.19 1022 10 16 0.03 0.76
10:19 am 10:19 Partly Cloudy 78 25.6 75 23.9 90 90 SSE 7 11 30.20 1023 10 16 0.00 0.00
10:59 am 10:59 Cloudy with Light Rain 78 25.6 75 23.9 90 90 VRB 6 9 30.19 1022 8 13 0.00 0.00
11:07 am 11:07 Mostly Cloudy 78 25.6 75 23.9 90 90 SSE 6 9 30.19 1022 10 16 0.00 0.00
11:59 am 11:59 Cloudy with Light Rain 78 25.6 75 23.9 90 90 SE 3 6 30.17 1022 7 11 0.02 0.51
12:59 pm 12:59 Cloudy 80 26.7 76 24.4 87 87 SE 6 9 30.16 1022 9 14 0.01 0.25
1:10 pm 13:10 Cloudy 80 26.7 76 24.4 87 87 VRB 3 6 30.17 1022 9 14 0.00 0.00
1:22 pm 13:22 Mostly Cloudy 80 26.7 76 24.4 87 87 SSE 3 6 30.16 1021 10 16 0.00 0.00
1:59 pm 13:59 Mostly Cloudy 80 26.7 76 24.4 87 87 SSE 6 9 30.16 1021 10 16 0.00 0.00
2:15 pm 14:15 Mostly Cloudy 81 27.2 77 25 88 88 SE 6 9 30.15 1021 10 16 0.00 0.00
2:54 pm 14:54 Cloudy 82 28 77 25 84 84 S 6 9 30.14 1021 10 16 0.00 0.00
2:59 pm 14:59 Cloudy 82 27.8 77 25 85 85 S 7 11 30.14 1021 10 16 0.00 0.00
3:41 pm 15:41 Mostly Cloudy 82 27.8 77 25 85 85 S 3 6 30.14 1021 10 16 0.00 0.00
3:59 pm 15:59 Mostly Cloudy 83 28.3 77 25 82 82 S 5 7 30.13 1020 10 16 0.00 0.00
4:59 pm 16:59 Mostly Cloudy 83 28.3 76 24.4 79 79 S 6 9 30.12 1020 10 16 0.00 0.00
5:59 pm 17:59 Mostly Cloudy 83 28.3 75 23.9 77 77 SSE 8 13 30.12 1020 10 16 0.00 0.00
6:59 pm 18:59 Cloudy 80 26.7 74 23.3 82 82 SE 5 7 30.12 1020 10 16 0.00 0.00
7:20 pm 19:20 Cloudy with Thunderstorms 80 26.7 74 23.3 82 82 SSE 3 6 30.12 1020 10 16 0.00 0.00
8:59 pm 20:59 Mostly Cloudy 79 26.1 74 23.3 85 85 SE 3 6 30.13 1020 10 16 0.00 0.00
9:59 pm 21:59 Mostly Cloudy 78 25.6 74 23.3 87 87 S 3 6 30.11 1020 10 16 0.00 0.00
10:59 pm 22:59 Mostly Cloudy 77 25 74 23.3 90 90 Calm 30.12 1020 10 16 0.00 0.00
11:59 pm 23:59 Mostly Cloudy 76 24.4 73 22.8 91 91 Calm 30.11 1020 10 16 0.00 0.00

Powered by AerisWeather